JST631 YMML-YMLT

Flight info

Callsign JST631
Flight time 0h 49m
Altitude 29000
Route ML H169 IRSOM W105 LT
Aircraft A320/M-SDE3FGHIRWY/LB1

Departure

Time 2026-05-06 04:26
Airport Melbourne Airport (YMML)

Arrival

Time 2026-05-06 05:15
Airport Launceston Airport (YMLT)
Time Latitude Longitude Altitude Speed Heading
2026-05-06 03:50 -37.67064 144.84572 364 ft 0 kts 171°
2026-05-06 04:11 -37.67064 144.84579 364 ft 4 kts 122°
2026-05-06 04:11 -37.67065 144.84587 362 ft 4 kts 121°
2026-05-06 04:12 -37.67048 144.84571 363 ft 4 kts 176°
2026-05-06 04:12 -37.67023 144.84574 360 ft 4 kts 209°
2026-05-06 04:12 -37.67008 144.84594 360 ft 2 kts 258°
2026-05-06 04:12 -37.67008 144.84596 360 ft 1 kts 259°
2026-05-06 04:19 -37.67012 144.84570 363 ft 9 kts 259°
2026-05-06 04:19 -37.67021 144.84466 363 ft 12 kts 248°
2026-05-06 04:20 -37.67050 144.84377 367 ft 10 kts 262°
2026-05-06 04:20 -37.67059 144.84288 369 ft 10 kts 264°
2026-05-06 04:20 -37.67018 144.84235 371 ft 9 kts 348°
2026-05-06 04:20 -37.66953 144.84223 373 ft 10 kts 351°
2026-05-06 04:21 -37.66876 144.84209 374 ft 14 kts 352°
2026-05-06 04:21 -37.66772 144.84190 375 ft 16 kts 351°
2026-05-06 04:21 -37.66662 144.84169 376 ft 14 kts 351°
2026-05-06 04:21 -37.66579 144.84165 375 ft 13 kts 20°
2026-05-06 04:22 -37.66526 144.84284 366 ft 20 kts 85°
2026-05-06 04:22 -37.66506 144.84484 352 ft 23 kts 80°
2026-05-06 04:22 -37.66486 144.84643 335 ft 15 kts 83°
2026-05-06 04:23 -37.66459 144.84768 329 ft 6 kts 34°
2026-05-06 04:23 -37.66403 144.84780 328 ft 10 kts
2026-05-06 04:23 -37.66365 144.84781 328 ft 2 kts
2026-05-06 04:23 -37.66341 144.84782 327 ft 5 kts
2026-05-06 04:24 -37.66290 144.84783 328 ft 10 kts
2026-05-06 04:24 -37.66243 144.84783 330 ft 3 kts 359°
2026-05-06 04:24 -37.66225 144.84766 331 ft 3 kts 298°
2026-05-06 04:24 -37.66224 144.84751 333 ft 0 kts 274°
2026-05-06 04:25 -37.66219 144.84672 339 ft 34 kts 275°
2026-05-06 04:25 -37.66184 144.84087 376 ft 95 kts 274°
2026-05-06 04:25 -37.66125 144.83037 413 ft 143 kts 273°
2026-05-06 04:26 -37.66073 144.81724 904 ft 146 kts 281°
2026-05-06 04:26 -37.66018 144.80450 1543 ft 146 kts 277°
2026-05-06 04:26 -37.65943 144.79155 2065 ft 149 kts 278°
2026-05-06 04:26 -37.65839 144.77762 2344 ft 171 kts 278°
2026-05-06 04:27 -37.65727 144.76200 2656 ft 191 kts 279°
2026-05-06 04:27 -37.65604 144.74455 2939 ft 210 kts 278°
2026-05-06 04:27 -37.65470 144.72503 3237 ft 236 kts 277°
2026-05-06 04:27 -37.65477 144.70401 3986 ft 246 kts 258°
2026-05-06 04:28 -37.66355 144.68511 4723 ft 261 kts 227°
2026-05-06 04:28 -37.67848 144.67027 4962 ft 290 kts 217°
2026-05-06 04:28 -37.69679 144.65650 5089 ft 321 kts 212°
2026-05-06 04:28 -37.71739 144.64432 5855 ft 324 kts 201°
2026-05-06 04:29 -37.73945 144.64140 7123 ft 319 kts 179°
2026-05-06 04:29 -37.76058 144.64838 8455 ft 309 kts 159°
2026-05-06 04:29 -37.77941 144.66124 9560 ft 306 kts 154°
2026-05-06 04:29 -37.79802 144.67477 10290 ft 313 kts 153°
2026-05-06 04:30 -37.81747 144.68916 10515 ft 336 kts 153°
2026-05-06 04:30 -37.83821 144.70466 10746 ft 355 kts 153°
2026-05-06 04:30 -37.85964 144.72083 11299 ft 362 kts 152°
2026-05-06 04:30 -37.88141 144.73734 11938 ft 367 kts 152°
2026-05-06 04:31 -37.90345 144.75407 12591 ft 372 kts 153°
2026-05-06 04:31 -37.92587 144.77102 13189 ft 378 kts 153°
2026-05-06 04:31 -37.94833 144.78795 13804 ft 383 kts 153°
2026-05-06 04:31 -37.97168 144.80557 14359 ft 387 kts 153°
2026-05-06 04:32 -37.99463 144.82288 14930 ft 391 kts 153°
2026-05-06 04:32 -38.01810 144.84059 15494 ft 395 kts 153°
2026-05-06 04:32 -38.04179 144.85849 16060 ft 398 kts 153°
2026-05-06 04:32 -38.06566 144.87657 16622 ft 402 kts 153°
2026-05-06 04:33 -38.08977 144.89485 17186 ft 405 kts 153°
2026-05-06 04:33 -38.11407 144.91326 17750 ft 409 kts 153°
2026-05-06 04:33 -38.13866 144.93186 18325 ft 413 kts 153°
2026-05-06 04:33 -38.16349 144.95066 18840 ft 416 kts 153°
2026-05-06 04:34 -38.18844 144.96957 19364 ft 420 kts 153°
2026-05-06 04:34 -38.21368 144.98878 19885 ft 424 kts 153°
2026-05-06 04:34 -38.23912 145.00814 20426 ft 427 kts 153°
2026-05-06 04:34 -38.26476 145.02766 20924 ft 431 kts 152°
2026-05-06 04:35 -38.29056 145.04732 21425 ft 435 kts 152°
2026-05-06 04:35 -38.31663 145.06719 21924 ft 438 kts 152°
2026-05-06 04:35 -38.34288 145.08719 22418 ft 441 kts 152°
2026-05-06 04:35 -38.36934 145.10737 22899 ft 445 kts 152°
2026-05-06 04:36 -38.39593 145.12774 23375 ft 448 kts 152°
2026-05-06 04:36 -38.42275 145.14831 23807 ft 451 kts 152°
2026-05-06 04:36 -38.44974 145.16899 24194 ft 455 kts 152°
2026-05-06 04:36 -38.47696 145.18982 24566 ft 458 kts 152°
2026-05-06 04:37 -38.50430 145.20972 24936 ft 458 kts 157°
2026-05-06 04:37 -38.53374 145.22504 25307 ft 457 kts 165°
2026-05-06 04:37 -38.56438 145.23838 25675 ft 460 kts 165°
2026-05-06 04:37 -38.59431 145.25145 26018 ft 463 kts 165°
2026-05-06 04:38 -38.62480 145.26482 26373 ft 465 kts 165°
2026-05-06 04:38 -38.65557 145.27838 26712 ft 468 kts 165°
2026-05-06 04:38 -38.68641 145.29201 27054 ft 471 kts 165°
2026-05-06 04:38 -38.71745 145.30574 27387 ft 474 kts 165°
2026-05-06 04:39 -38.74876 145.31960 27717 ft 477 kts 165°
2026-05-06 04:39 -38.78014 145.33352 28055 ft 479 kts 165°
2026-05-06 04:39 -38.81175 145.34751 28389 ft 482 kts 165°
2026-05-06 04:39 -38.84343 145.36155 28715 ft 484 kts 165°
2026-05-06 04:40 -38.87544 145.37574 28983 ft 488 kts 165°
2026-05-06 04:40 -38.94083 145.40473 29029 ft 506 kts 165°
2026-05-06 04:41 -39.00826 145.43469 29026 ft 519 kts 164°
2026-05-06 04:41 -39.07703 145.46537 29022 ft 527 kts 164°
2026-05-06 04:42 -39.14619 145.49633 29013 ft 532 kts 164°
2026-05-06 04:42 -39.21643 145.52775 29017 ft 535 kts 164°
2026-05-06 04:42 -39.25105 145.54331 29005 ft 517 kts 164°
2026-05-06 04:43 -39.28426 145.55832 29011 ft 496 kts 164°
2026-05-06 04:43 -39.31634 145.57283 29006 ft 483 kts 164°
2026-05-06 04:43 -39.34791 145.58710 29005 ft 478 kts 165°
2026-05-06 04:44 -39.41059 145.61520 29002 ft 476 kts 165°
2026-05-06 04:44 -39.47316 145.64324 29003 ft 476 kts 165°
2026-05-06 04:45 -39.53568 145.67147 29004 ft 476 kts 164°
2026-05-06 04:45 -39.59822 145.69988 29002 ft 476 kts 164°
2026-05-06 04:46 -39.66067 145.72824 28980 ft 476 kts 164°
2026-05-06 04:46 -39.72324 145.75668 28975 ft 477 kts 164°
2026-05-06 04:47 -39.78577 145.78526 29005 ft 477 kts 164°
2026-05-06 04:47 -39.84850 145.81388 28982 ft 478 kts 164°
2026-05-06 04:48 -39.91128 145.84256 28973 ft 478 kts 164°
2026-05-06 04:48 -39.97369 145.87116 28974 ft 479 kts 164°
2026-05-06 04:49 -40.03656 145.90014 28997 ft 479 kts 164°
2026-05-06 04:49 -40.09954 145.92926 28956 ft 481 kts 164°
2026-05-06 04:50 -40.16253 145.95858 28957 ft 481 kts 164°
2026-05-06 04:50 -40.22561 145.98792 28939 ft 481 kts 164°
2026-05-06 04:51 -40.28886 146.01732 28959 ft 482 kts 164°
2026-05-06 04:51 -40.35197 146.04676 28948 ft 482 kts 164°
2026-05-06 04:52 -40.41484 146.07614 28665 ft 474 kts 164°
2026-05-06 04:52 -40.44582 146.09073 28389 ft 470 kts 164°
2026-05-06 04:52 -40.47656 146.10523 28149 ft 468 kts 163°
2026-05-06 04:52 -40.50712 146.11963 27823 ft 465 kts 164°
2026-05-06 04:53 -40.53746 146.13388 27266 ft 463 kts 164°
2026-05-06 04:53 -40.55758 146.14333 26902 ft 462 kts 164°
2026-05-06 04:53 -40.58779 146.15755 26363 ft 461 kts 164°
2026-05-06 04:53 -40.62774 146.17634 25673 ft 458 kts 164°
2026-05-06 04:54 -40.64793 146.18584 25326 ft 457 kts 164°
2026-05-06 04:54 -40.68742 146.20445 24770 ft 453 kts 163°
2026-05-06 04:54 -40.71708 146.21850 24259 ft 453 kts 163°
2026-05-06 04:54 -40.74663 146.23247 23964 ft 446 kts 163°
2026-05-06 04:55 -40.76620 146.24175 23902 ft 439 kts 163°
2026-05-06 04:55 -40.79428 146.25512 23757 ft 430 kts 163°
2026-05-06 04:55 -40.82236 146.26845 23255 ft 430 kts 164°
2026-05-06 04:55 -40.85050 146.28174 22744 ft 429 kts 164°
2026-05-06 04:56 -40.87855 146.29502 22253 ft 427 kts 164°
2026-05-06 04:56 -40.90642 146.30827 21742 ft 426 kts 164°
2026-05-06 04:56 -40.93438 146.32159 21248 ft 426 kts 164°
2026-05-06 04:56 -40.96226 146.33493 20697 ft 426 kts 164°
2026-05-06 04:57 -40.99012 146.34823 20179 ft 426 kts 164°
2026-05-06 04:57 -41.01799 146.36153 19626 ft 426 kts 164°
2026-05-06 04:57 -41.04586 146.37481 19089 ft 425 kts 164°
2026-05-06 04:57 -41.07371 146.38808 18539 ft 426 kts 165°
2026-05-06 04:58 -41.10152 146.40136 17948 ft 426 kts 164°
2026-05-06 04:58 -41.12928 146.41484 17465 ft 423 kts 162°
2026-05-06 04:58 -41.15535 146.43317 16960 ft 424 kts 148°
2026-05-06 04:58 -41.17807 146.45804 16388 ft 425 kts 135°
2026-05-06 04:59 -41.19643 146.48845 15911 ft 421 kts 122°
2026-05-06 04:59 -41.21210 146.52101 15423 ft 417 kts 122°
2026-05-06 04:59 -41.22773 146.55335 14942 ft 414 kts 122°
2026-05-06 04:59 -41.24321 146.58533 14462 ft 411 kts 122°
2026-05-06 05:00 -41.25863 146.61716 13975 ft 408 kts 122°
2026-05-06 05:00 -41.27393 146.64873 13492 ft 405 kts 123°
2026-05-06 05:00 -41.28910 146.68008 12975 ft 402 kts 123°
2026-05-06 05:00 -41.30391 146.71079 12515 ft 398 kts 123°
2026-05-06 05:01 -41.31873 146.74165 12045 ft 394 kts 123°
2026-05-06 05:01 -41.33345 146.77233 11577 ft 391 kts 123°
2026-05-06 05:01 -41.34801 146.80263 11103 ft 387 kts 122°
2026-05-06 05:01 -41.36242 146.83259 10659 ft 382 kts 123°
2026-05-06 05:02 -41.37668 146.86228 10206 ft 379 kts 123°
2026-05-06 05:02 -41.39067 146.89148 10003 ft 369 kts 123°
2026-05-06 05:02 -41.40414 146.91967 9873 ft 352 kts 123°
2026-05-06 05:02 -41.41696 146.94655 9553 ft 336 kts 123°
2026-05-06 05:03 -41.42952 146.97288 9077 ft 337 kts 123°
2026-05-06 05:03 -41.44198 146.99895 8591 ft 332 kts 123°
2026-05-06 05:03 -41.45431 147.02471 8026 ft 328 kts 123°
2026-05-06 05:03 -41.46643 147.05011 7499 ft 323 kts 123°
2026-05-06 05:04 -41.47840 147.07519 6976 ft 318 kts 123°
2026-05-06 05:04 -41.49015 147.09987 6472 ft 313 kts 123°
2026-05-06 05:04 -41.50173 147.12422 5962 ft 309 kts 123°
2026-05-06 05:04 -41.51320 147.14838 5453 ft 308 kts 123°
2026-05-06 05:05 -41.52446 147.17213 4973 ft 305 kts 121°
2026-05-06 05:05 -41.53593 147.19590 4457 ft 303 kts 128°
2026-05-06 05:05 -41.55109 147.21502 4112 ft 299 kts 146°
2026-05-06 05:05 -41.56777 147.23144 3859 ft 294 kts 147°
2026-05-06 05:06 -41.58407 147.24718 3736 ft 285 kts 148°
2026-05-06 05:06 -41.60025 147.26177 3597 ft 276 kts 151°
2026-05-06 05:06 -41.61611 147.27538 3472 ft 268 kts 151°
2026-05-06 05:06 -41.63159 147.28860 3361 ft 260 kts 152°
2026-05-06 05:07 -41.64657 147.30137 3236 ft 250 kts 151°
2026-05-06 05:07 -41.66111 147.31341 3120 ft 240 kts 158°
2026-05-06 05:07 -41.67651 147.31802 2995 ft 218 kts 195°
2026-05-06 05:07 -41.68949 147.31110 3016 ft 194 kts 229°
2026-05-06 05:08 -41.69908 147.29891 3047 ft 185 kts 236°
2026-05-06 05:08 -41.70856 147.28807 3018 ft 181 kts 213°
2026-05-06 05:08 -41.72090 147.28528 2991 ft 180 kts 185°
2026-05-06 05:08 -41.73236 147.29186 2998 ft 185 kts 135°
2026-05-06 05:09 -41.73882 147.30644 2999 ft 182 kts 97°
2026-05-06 05:09 -41.73843 147.32258 3008 ft 169 kts 60°
2026-05-06 05:09 -41.73249 147.33510 3030 ft 151 kts 29°
2026-05-06 05:09 -41.72388 147.34175 3028 ft 136 kts
2026-05-06 05:10 -41.71493 147.34278 3023 ft 125 kts 343°
2026-05-06 05:10 -41.70676 147.33924 3026 ft 124 kts 326°
2026-05-06 05:10 -41.69894 147.33403 3018 ft 129 kts 327°
2026-05-06 05:10 -41.69089 147.32875 3015 ft 130 kts 327°
2026-05-06 05:11 -41.68281 147.32345 2997 ft 130 kts 327°
2026-05-06 05:11 -41.67469 147.31812 3016 ft 130 kts 327°
2026-05-06 05:11 -41.66650 147.31279 2998 ft 131 kts 327°
2026-05-06 05:11 -41.65852 147.30703 2964 ft 130 kts 324°
2026-05-06 05:12 -41.65074 147.30092 2839 ft 130 kts 323°
2026-05-06 05:12 -41.64300 147.29458 2694 ft 130 kts 323°
2026-05-06 05:12 -41.63537 147.28818 2526 ft 130 kts 323°
2026-05-06 05:12 -41.62776 147.28173 2348 ft 129 kts 324°
2026-05-06 05:13 -41.62023 147.27531 2167 ft 129 kts 324°
2026-05-06 05:13 -41.61262 147.26881 1999 ft 129 kts 323°
2026-05-06 05:13 -41.60505 147.26232 1827 ft 128 kts 324°
2026-05-06 05:13 -41.59748 147.25584 1644 ft 130 kts 327°
2026-05-06 05:14 -41.58990 147.24935 1453 ft 131 kts 326°
2026-05-06 05:14 -41.58218 147.24273 1289 ft 130 kts 327°
2026-05-06 05:14 -41.57460 147.23620 1129 ft 130 kts 327°
2026-05-06 05:14 -41.56716 147.22972 958 ft 129 kts 328°
2026-05-06 05:15 -41.55963 147.22343 803 ft 128 kts 327°
2026-05-06 05:15 -41.55210 147.21691 590 ft 129 kts 328°
2026-05-06 05:15 -41.54560 147.21145 568 ft 60 kts 328°
2026-05-06 05:15 -41.54411 147.21018 561 ft 19 kts 326°
2026-05-06 05:16 -41.54310 147.20927 562 ft 11 kts 326°
2026-05-06 05:16 -41.54293 147.20840 559 ft 12 kts 241°
2026-05-06 05:16 -41.54313 147.20805 557 ft 1 kts 235°
2026-05-06 05:16 -41.54322 147.20785 557 ft 4 kts 246°
2026-05-06 05:17 -41.54312 147.20746 562 ft 5 kts 303°
2026-05-06 05:17 -41.54282 147.20713 559 ft 6 kts 325°
2026-05-06 05:17 -41.54242 147.20679 557 ft 6 kts 328°
2026-05-06 05:17 -41.54225 147.20664 560 ft 1 kts 328°
2026-05-06 05:18 -41.54219 147.20658 560 ft 0 kts 320°
2026-05-06 05:18 -41.54219 147.20651 559 ft 2 kts 287°
2026-05-06 05:18 -41.54214 147.20623 559 ft 4 kts 278°
2026-05-06 05:18 -41.54209 147.20595 563 ft 0 kts 289°